Terminal Aerodrome Forecast
Issued by NWS Pocatello, ID

Home | Current Version | Previous Version | Text Only | Print | Product List | Glossary On
Versions: 1 2 3 4 5 6 7 8 9 10 11 12 13 14 15
000
FTUS45 KPIH 280500
TAFBYI
TAF
KBYI 280520Z 2806/2906 22008KT P6SM BKN150
     FM281800 22012G18KT P6SM BKN150=

USA.gov is the U.S. government's official web portal to all federal, state and local government web resources and services.